| time (UTC) | temp C | wind direction | speed KPH | gust KPH | rain 1hr cm | rain 24hr cm | rain mn cm | humidity % | barometer mb |
| 20260906094058 | 7 | 68 | 3.2 | 6.4 | 0.00 | 0.00 | 0.00 | 50 | 1021.8 |
| 20260906093558 | 7 | 0 | 3.2 | 11.3 | 0.00 | 0.00 | 0.00 | 51 | 1021.8 |
| 20260906093108 | 8 | 0 | 6.4 | 11.3 | 0.00 | 0.00 | 0.00 | 47 | 1021.9 |
| 20260906092558 | 7 | 141 | 1.6 | 3.2 | 0.00 | 0.00 | 0.00 | 50 | 1021.9 |
| 20260906092058 | 8 | 0 | 0.0 | 3.2 | 0.00 | 0.00 | 0.00 | 49 | 1022.0 |
| 20260906091607 | 8 | 0 | 0.0 | 3.2 | 0.00 | 0.00 | 0.00 | 48 | 1021.8 |
| 20260906091100 | 8 | 224 | 0.0 | 1.6 | 0.00 | 0.00 | 0.00 | 48 | 1022.0 |
| 20260906090559 | 10 | 0 | 0.0 | 4.8 | 0.00 | 0.00 | 0.00 | 46 | 1022.1 |
| 20260906090104 | 10 | 0 | 1.6 | 12.9 | 0.00 | 0.00 | 0.00 | 46 | 1022.0 |
| 20260906085557 | 10 | 52 | 6.4 | 12.9 | 0.00 | 0.00 | 0.00 | 46 | 1022.2 |
| 20260906085057 | 9 | 99 | 8.0 | 12.9 | 0.00 | 0.00 | 0.00 | 49 | 1022.0 |
| 20260906084606 | 8 | 54 | 1.6 | 4.8 | 0.00 | 0.00 | 0.00 | 52 | 1022.0 |
| 20260906084057 | 8 | 0 | 0.0 | 11.3 | 0.00 | 0.00 | 0.00 | 52 | 1022.2 |
| 20260906083558 | 9 | 0 | 0.0 | 14.5 | 0.00 | 0.00 | 0.00 | 51 | 1022.1 |
| 20260906083106 | 8 | 79 | 8.0 | 14.5 | 0.00 | 0.00 | 0.00 | 52 | 1022.1 |
| 20260906082557 | 7 | 40 | 0.0 | 8.0 | 0.00 | 0.00 | 0.00 | 54 | 1022.0 |
| 20260906082058 | 8 | 169 | 1.6 | 8.0 | 0.00 | 0.00 | 0.00 | 53 | 1022.1 |
| 20260906081604 | 8 | 62 | 0.0 | 4.8 | 0.00 | 0.00 | 0.00 | 53 | 1022.0 |
| 20260906081058 | 8 | 0 | 1.6 | 4.8 | 0.00 | 0.00 | 0.00 | 51 | 1022.0 |
| 20260906080558 | 9 | 0 | 3.2 | 4.8 | 0.00 | 0.00 | 0.00 | 51 | 1021.9 |
| 20260906080103 | 9 | 140 | 0.0 | 6.4 | 0.00 | 0.00 | 0.00 | 51 | 1022.0 |
| 20260906075618 | 10 | 0 | 0.0 | 12.9 | 0.00 | 0.00 | 0.00 | 50 | 1022.0 |
| 20260906075058 | 10 | 77 | 6.4 | 12.9 | 0.00 | 0.00 | 0.00 | 50 | 1022.0 |
| 20260906074614 | 9 | 53 | 1.6 | 14.5 | 0.00 | 0.00 | 0.00 | 52 | 1021.7 |
| 20260906074055 | 10 | 0 | 3.2 | 14.5 | 0.00 | 0.00 | 0.00 | 52 | 1022.0 |
| 20260906073600 | 8 | 65 | 8.0 | 11.3 | 0.00 | 0.00 | 0.00 | 57 | 1021.9 |
| 20260906073105 | 7 | 0 | 0.0 | 1.6 | 0.00 | 0.00 | 0.00 | 58 | 1021.9 |
| 20260906072558 | 7 | 0 | 0.0 | 1.6 | 0.00 | 0.00 | 0.00 | 58 | 1022.0 |
| 20260906072058 | 7 | 0 | 0.0 | 1.6 | 0.00 | 0.00 | 0.00 | 58 | 1022.0 |
| 20260906071605 | 7 | 30 | 0.0 | 1.6 | 0.00 | 0.00 | 0.00 | 61 | 1021.9 |
| 20260906071057 | 7 | 0 | 0.0 | 1.6 | 0.00 | 0.00 | 0.00 | 60 | 1022.0 |
| 20260906070558 | 7 | 0 | 0.0 | 1.6 | 0.00 | 0.00 | 0.00 | 61 | 1021.9 |
| 20260906070111 | 7 | 0 | 0.0 | 1.6 | 0.00 | 0.00 | 0.00 | 60 | 1021.9 |
| 20260906065558 | 8 | 0 | 0.0 | 1.6 | 0.00 | 0.00 | 0.00 | 60 | 1021.8 |
| 20260906065058 | 8 | 17 | 0.0 | 3.2 | 0.00 | 0.00 | 0.00 | 59 | 1022.0 |
| 20260906064606 | 8 | 0 | 0.0 | 3.2 | 0.00 | 0.00 | 0.00 | 59 | 1021.8 |
| 20260906064058 | 8 | 354 | 0.0 | 3.2 | 0.00 | 0.00 | 0.00 | 58 | 1021.7 |
| 20260906063556 | 8 | 200 | 0.0 | 1.6 | 0.00 | 0.00 | 0.00 | 58 | 1021.9 |
| 20260906063106 | 8 | 0 | 0.0 | 1.6 | 0.00 | 0.00 | 0.00 | 58 | 1021.8 |
| 20260906062555 | 9 | 0 | 0.0 | 3.2 | 0.00 | 0.00 | 0.00 | 58 | 1021.9 |
| 20260906062055 | 9 | 0 | 0.0 | 3.2 | 0.00 | 0.00 | 0.00 | 57 | 1022.0 |
| 20260906061607 | 10 | 0 | 0.0 | 6.4 | 0.00 | 0.00 | 0.00 | 57 | 1022.1 |
| 20260906061057 | 10 | 0 | 1.6 | 8.0 | 0.00 | 0.00 | 0.00 | 57 | 1022.0 |
| 20260906060555 | 9 | 59 | 3.2 | 8.0 | 0.00 | 0.00 | 0.00 | 58 | 1021.9 |
| 20260906060105 | 9 | 158 | 3.2 | 6.4 | 0.00 | 0.00 | 0.00 | 59 | 1022.0 |
| 20260906055559 | 9 | 0 | 1.6 | 4.8 | 0.00 | 0.00 | 0.00 | 61 | 1022.0 |
| 20260906055057 | 9 | 136 | 0.0 | 4.8 | 0.00 | 0.00 | 0.00 | 61 | 1022.2 |
| 20260906054608 | 9 | 154 | 0.0 | 6.4 | 0.00 | 0.00 | 0.00 | 60 | 1022.2 |
| 20260906054056 | 9 | 0 | 1.6 | 8.0 | 0.00 | 0.00 | 0.00 | 60 | 1022.1 |
| 20260906053556 | 9 | 79 | 4.8 | 8.0 | 0.00 | 0.00 | 0.00 | 62 | 1022.1 |
| 20260906053110 | 8 | 101 | 3.2 | 6.4 | 0.00 | 0.00 | 0.00 | 62 | 1022.1 |
| 20260906052555 | 9 | 0 | 1.6 | 8.0 | 0.00 | 0.00 | 0.00 | 61 | 1022.2 |
| 20260906052059 | 8 | 105 | 0.0 | 8.0 | 0.00 | 0.00 | 0.00 | 61 | 1022.1 |
| 20260906051605 | 9 | 205 | 0.0 | 4.8 | 0.00 | 0.00 | 0.00 | 61 | 1022.4 |
| 20260906051058 | 9 | 0 | 0.0 | 4.8 | 0.00 | 0.00 | 0.00 | 60 | 1022.1 |
| 20260906050600 | 9 | 0 | 0.0 | 1.6 | 0.00 | 0.00 | 0.00 | 61 | 1022.2 |
| 20260906050108 | 9 | 0 | 0.0 | 3.2 | 0.00 | 0.00 | 0.00 | 61 | 1022.2 |
| 20260906045557 | 9 | 128 | 0.0 | 3.2 | 0.00 | 0.00 | 0.00 | 59 | 1022.2 |
| 20260906045103 | 10 | 0 | 0.0 | 1.6 | 0.00 | 0.00 | 0.00 | 59 | 1022.3 |
| 20260906044607 | 10 | 0 | 0.0 | 1.6 | 0.00 | 0.00 | 0.00 | 58 | 1022.4 |
| 20260906044054 | 10 | 0 | 0.0 | 1.6 | 0.00 | 0.00 | 0.00 | 58 | 1022.2 |
| 20260906043556 | 10 | 226 | 0.0 | 0.0 | 0.00 | 0.00 | 0.00 | 57 | 1022.1 |
| 20260906043107 | 11 | 0 | 0.0 | 0.0 | 0.00 | 0.00 | 0.00 | 57 | 1022.2 |
| 20260906042555 | 11 | 0 | 0.0 | 0.0 | 0.00 | 0.00 | 0.00 | 57 | 1022.1 |
| 20260906042055 | 11 | 166 | 0.0 | 3.2 | 0.00 | 0.00 | 0.00 | 57 | 1022.0 |
| 20260906041606 | 11 | 195 | 0.0 | 3.2 | 0.00 | 0.00 | 0.00 | 54 | 1022.1 |
| 20260906041057 | 12 | 0 | 0.0 | 1.6 | 0.00 | 0.00 | 0.00 | 55 | 1022.0 |
| 20260906040600 | 12 | 0 | 0.0 | 1.6 | 0.00 | 0.00 | 0.00 | 55 | 1022.0 |
| 20260906040112 | 12 | 172 | 0.0 | 1.6 | 0.00 | 0.00 | 0.00 | 54 | 1021.9 |
| 20260906035557 | 12 | 0 | 0.0 | 4.8 | 0.00 | 0.00 | 0.00 | 53 | 1021.8 |
| 20260906035101 | 13 | 0 | 1.6 | 4.8 | 0.00 | 0.00 | 0.00 | 52 | 1021.7 |
| 20260906034608 | 13 | 0 | 0.0 | 1.6 | 0.00 | 0.00 | 0.00 | 50 | 1021.6 |
| 20260906034057 | 13 | 0 | 0.0 | 8.0 | 0.00 | 0.00 | 0.00 | 48 | 1021.7 |
| 20260906033557 | 14 | 0 | 0.0 | 8.0 | 0.00 | 0.00 | 0.00 | 47 | 1021.6 |
| 20260906033116 | 14 | 0 | 1.6 | 8.0 | 0.00 | 0.00 | 0.00 | 46 | 1021.5 |
| 20260906032558 | 15 | 347 | 3.2 | 11.3 | 0.00 | 0.00 | 0.00 | 45 | 1021.5 |
| 20260906032057 | 15 | 32 | 3.2 | 11.3 | 0.00 | 0.00 | 0.00 | 43 | 1021.5 |
| 20260906031607 | 17 | 22 | 0.0 | 24.1 | 0.00 | 0.00 | 0.00 | 37 | 1021.2 |
| 20260906031100 | 18 | 340 | 6.4 | 24.1 | 0.00 | 0.00 | 0.00 | 20 | 1021.0 |
| 20260906030558 | 18 | 119 | 14.5 | 25.7 | 0.00 | 0.00 | 0.00 | 18 | 1021.0 |
| 20260906030109 | 18 | 141 | 9.7 | 30.6 | 0.00 | 0.00 | 0.00 | 19 | 1020.9 |
| 20260906025558 | 18 | 86 | 17.7 | 32.2 | 0.00 | 0.00 | 0.00 | 20 | 1021.1 |
| 20260906025058 | 18 | 133 | 17.7 | 32.2 | 0.00 | 0.00 | 0.00 | 21 | 1020.8 |
| 20260906024608 | 18 | 160 | 17.7 | 32.2 | 0.00 | 0.00 | 0.00 | 22 | 1021.1 |
| 20260906024100 | 18 | 155 | 14.5 | 24.1 | 0.00 | 0.00 | 0.00 | 22 | 1021.0 |
| 20260906023558 | 18 | 117 | 14.5 | 25.7 | 0.00 | 0.00 | 0.00 | 22 | 1021.0 |
| 20260906023104 | 18 | 149 | 12.9 | 29.0 | 0.00 | 0.00 | 0.00 | 23 | 1020.8 |
| 20260906022559 | 18 | 145 | 14.5 | 33.8 | 0.00 | 0.00 | 0.00 | 23 | 1020.9 |
| 20260906022102 | 18 | 111 | 16.1 | 33.8 | 0.00 | 0.00 | 0.00 | 22 | 1020.9 |
| 20260906021606 | 18 | 117 | 11.3 | 24.1 | 0.00 | 0.00 | 0.00 | 23 | 1020.9 |
| 20260906021057 | 18 | 180 | 12.9 | 24.1 | 0.00 | 0.00 | 0.00 | 24 | 1021.0 |
| 20260906020557 | 18 | 158 | 11.3 | 19.3 | 0.00 | 0.00 | 0.00 | 24 | 1021.0 |
| 20260906020113 | 18 | 139 | 6.4 | 20.9 | 0.00 | 0.00 | 0.00 | 23 | 1020.9 |
| 20260906015557 | 18 | 148 | 6.4 | 24.1 | 0.00 | 0.00 | 0.00 | 25 | 1020.9 |
| 20260906015058 | 18 | 102 | 11.3 | 24.1 | 0.00 | 0.00 | 0.00 | 23 | 1020.9 |
| 20260906014606 | 18 | 157 | 6.4 | 20.9 | 0.00 | 0.00 | 0.00 | 23 | 1020.9 |
| 20260906014057 | 18 | 141 | 9.7 | 20.9 | 0.00 | 0.00 | 0.00 | 23 | 1020.6 |
| 20260906013601 | 19 | 212 | 9.7 | 16.1 | 0.00 | 0.00 | 0.00 | 23 | 1020.6 |
| 20260906013111 | 19 | 128 | 8.0 | 16.1 | 0.00 | 0.00 | 0.00 | 23 | 1020.5 |
| 20260906012559 | 20 | 153 | 4.8 | 12.9 | 0.00 | 0.00 | 0.00 | 22 | 1020.5 |
| 20260906012057 | 20 | 0 | 3.2 | 12.9 | 0.00 | 0.00 | 0.00 | 22 | 1020.4 |
| 20260906011610 | 20 | 0 | 0.0 | 12.9 | 0.00 | 0.00 | 0.00 | 22 | 1020.6 |
| 20260906011058 | 20 | 94 | 3.2 | 20.9 | 0.00 | 0.00 | 0.00 | 22 | 1020.5 |
| 20260906010555 | 20 | 0 | 4.8 | 20.9 | 0.00 | 0.00 | 0.00 | 21 | 1020.6 |
| 20260906010107 | 21 | 104 | 11.3 | 17.7 | 0.00 | 0.00 | 0.00 | 20 | 1020.6 |
| 20260906005555 | 21 | 75 | 0.0 | 11.3 | 0.00 | 0.00 | 0.00 | 21 | 1020.5 |
| 20260906005057 | 21 | 255 | 1.6 | 11.3 | 0.00 | 0.00 | 0.00 | 21 | 1020.6 |
| 20260906004610 | 21 | 242 | 4.8 | 24.1 | 0.00 | 0.00 | 0.00 | 22 | 1020.6 |
| 20260906004058 | 21 | 222 | 3.2 | 25.7 | 0.00 | 0.00 | 0.00 | 22 | 1020.5 |
| 20260906003558 | 21 | 116 | 14.5 | 25.7 | 0.00 | 0.00 | 0.00 | 20 | 1020.5 |
| 20260906003106 | 21 | 47 | 14.5 | 25.7 | 0.00 | 0.00 | 0.00 | 21 | 1020.4 |
| 20260906002557 | 21 | 105 | 9.7 | 20.9 | 0.00 | 0.00 | 0.00 | 22 | 1020.4 |
| 20260906002055 | 21 | 127 | 4.8 | 20.9 | 0.00 | 0.00 | 0.00 | 21 | 1020.4 |
| 20260906001609 | 21 | 123 | 11.3 | 20.9 | 0.00 | 0.00 | 0.00 | 19 | 1020.3 |
| 20260906001057 | 21 | 106 | 3.2 | 16.1 | 0.00 | 0.00 | 0.00 | 20 | 1020.3 |
| 20260906000557 | 21 | 4 | 8.0 | 33.8 | 0.00 | 0.00 | 0.00 | 19 | 1020.2 |
| 20260906000107 | 21 | 183 | 14.5 | 33.8 | 0.00 | 0.00 | 0.00 | 22 | 1020.4 |
| 20260905235557 | 21 | 132 | 12.9 | 25.7 | 0.00 | 0.00 | 0.00 | 19 | 1020.1 |
| 20260905235057 | 21 | 162 | 0.0 | 24.1 | 0.00 | 0.00 | 0.00 | 22 | 1020.3 |
| 20260905234604 | 21 | 333 | 9.7 | 33.8 | 0.00 | 0.00 | 0.00 | 20 | 1020.2 |
| 20260905234056 | 21 | 169 | 6.4 | 33.8 | 0.00 | 0.00 | 0.00 | 21 | 1020.1 |
| 20260905233556 | 22 | 131 | 20.9 | 33.8 | 0.00 | 0.00 | 0.00 | 20 | 1020.0 |
| 20260905233104 | 22 | 147 | 8.0 | 22.5 | 0.00 | 0.00 | 0.00 | 20 | 1019.9 |
| 20260905232555 | 22 | 110 | 6.4 | 17.7 | 0.00 | 0.00 | 0.00 | 20 | 1019.9 |
| 20260905232056 | 22 | 155 | 1.6 | 16.1 | 0.00 | 0.00 | 0.00 | 23 | 1019.9 |
| 20260905231609 | 22 | 77 | 6.4 | 16.1 | 0.00 | 0.00 | 0.00 | 21 | 1019.9 |
| 20260905231057 | 22 | 49 | 3.2 | 11.3 | 0.00 | 0.00 | 0.00 | 21 | 1019.9 |
| 20260905230557 | 22 | 0 | 4.8 | 8.0 | 0.00 | 0.00 | 0.00 | 20 | 1020.0 |
| 20260905230108 | 22 | 258 | 1.6 | 20.9 | 0.00 | 0.00 | 0.00 | 22 | 1020.0 |
| 20260905225556 | 22 | 0 | 3.2 | 20.9 | 0.00 | 0.00 | 0.00 | 23 | 1019.9 |
| 20260905225057 | 22 | 146 | 8.0 | 24.1 | 0.00 | 0.00 | 0.00 | 21 | 1020.1 |
| 20260905224606 | 22 | 163 | 6.4 | 24.1 | 0.00 | 0.00 | 0.00 | 23 | 1019.9 |
| 20260905224055 | 22 | 94 | 8.0 | 22.5 | 0.00 | 0.00 | 0.00 | 21 | 1019.9 |
| 20260905223555 | 22 | 112 | 9.7 | 25.7 | 0.00 | 0.00 | 0.00 | 19 | 1019.9 |
| 20260905223105 | 21 | 96 | 9.7 | 25.7 | 0.00 | 0.00 | 0.00 | 23 | 1019.8 |
| 20260905222557 | 21 | 125 | 11.3 | 27.4 | 0.00 | 0.00 | 0.00 | 24 | 1020.0 |
| 20260905222057 | 21 | 125 | 12.9 | 27.4 | 0.00 | 0.00 | 0.00 | 24 | 1020.0 |
| 20260905221604 | 21 | 115 | 8.0 | 25.7 | 0.00 | 0.00 | 0.00 | 23 | 1020.0 |
| 20260905221057 | 21 | 111 | 9.7 | 25.7 | 0.00 | 0.00 | 0.00 | 22 | 1020.1 |
| 20260905220558 | 21 | 9 | 3.2 | 29.0 | 0.00 | 0.00 | 0.00 | 22 | 1020.1 |
| 20260905220105 | 21 | 133 | 8.0 | 29.0 | 0.00 | 0.00 | 0.00 | 24 | 1019.9 |
| 20260905215557 | 21 | 13 | 14.5 | 29.0 | 0.00 | 0.00 | 0.00 | 24 | 1020.1 |
| 20260905215058 | 21 | 31 | 9.7 | 29.0 | 0.00 | 0.00 | 0.00 | 25 | 1020.1 |
| 20260905214608 | 21 | 90 | 4.8 | 30.6 | 0.00 | 0.00 | 0.00 | 24 | 1020.2 |
| 20260905214058 | 21 | 98 | 16.1 | 30.6 | 0.00 | 0.00 | 0.00 | 22 | 1020.4 |
| 20260905213557 | 21 | 166 | 9.7 | 24.1 | 0.00 | 0.00 | 0.00 | 24 | 1020.2 |
| 20260905213108 | 21 | 93 | 8.0 | 33.8 | 0.00 | 0.00 | 0.00 | 24 | 1020.4 |
| 20260905212557 | 21 | 180 | 12.9 | 33.8 | 0.00 | 0.00 | 0.00 | 24 | 1020.4 |
| 20260905212057 | 21 | 60 | 9.7 | 35.4 | 0.00 | 0.00 | 0.00 | 24 | 1020.5 |
| 20260905211602 | 21 | 0 | 8.0 | 35.4 | 0.00 | 0.00 | 0.00 | 25 | 1020.5 |
| 20260905211057 | 20 | 80 | 14.5 | 35.4 | 0.00 | 0.00 | 0.00 | 26 | 1020.5 |
| 20260905210557 | 21 | 142 | 6.4 | 25.7 | 0.00 | 0.00 | 0.00 | 24 | 1020.7 |
| 20260905210126 | 20 | 56 | 11.3 | 33.8 | 0.00 | 0.00 | 0.00 | 26 | 1020.9 |
| 20260905205557 | 20 | 123 | 12.9 | 33.8 | 0.00 | 0.00 | 0.00 | 27 | 1020.9 |
| 20260905205101 | 20 | 110 | 11.3 | 29.0 | 0.00 | 0.00 | 0.00 | 28 | 1020.9 |
| 20260905204606 | 20 | 159 | 9.7 | 24.1 | 0.00 | 0.00 | 0.00 | 28 | 1020.8 |
| 20260905204057 | 20 | 150 | 12.9 | 37.0 | 0.00 | 0.00 | 0.00 | 29 | 1020.9 |
| 20260905203558 | 20 | 182 | 12.9 | 37.0 | 0.00 | 0.00 | 0.00 | 29 | 1021.0 |
| 20260905203101 | 19 | 38 | 16.1 | 37.0 | 0.00 | 0.00 | 0.00 | 28 | 1020.9 |
| 20260905202557 | 19 | 102 | 14.5 | 37.0 | 0.00 | 0.00 | 0.00 | 29 | 1021.0 |
| 20260905202057 | 19 | 122 | 12.9 | 29.0 | 0.00 | 0.00 | 0.00 | 29 | 1021.1 |
| 20260905201607 | 18 | 53 | 16.1 | 29.0 | 0.00 | 0.00 | 0.00 | 30 | 1020.9 |
| 20260905201057 | 19 | 158 | 12.9 | 29.0 | 0.00 | 0.00 | 0.00 | 28 | 1021.1 |
| 20260905200558 | 19 | 357 | 9.7 | 29.0 | 0.00 | 0.00 | 0.00 | 28 | 1021.1 |
| 20260905200117 | 19 | 334 | 11.3 | 29.0 | 0.00 | 0.00 | 0.00 | 29 | 1021.1 |
| 20260905195558 | 18 | 86 | 12.9 | 35.4 | 0.00 | 0.00 | 0.00 | 30 | 1021.1 |
| 20260905195057 | 18 | 1 | 14.5 | 35.4 | 0.00 | 0.00 | 0.00 | 30 | 1021.1 |
| 20260905194616 | 18 | 63 | 14.5 | 32.2 | 0.00 | 0.00 | 0.00 | 30 | 1021.1 |
| 20260905194057 | 18 | 118 | 12.9 | 32.2 | 0.00 | 0.00 | 0.00 | 32 | 1021.0 |
| 20260905193556 | 18 | 160 | 16.1 | 32.2 | 0.00 | 0.00 | 0.00 | 30 | 1021.1 |
| 20260905193103 | 18 | 49 | 11.3 | 24.1 | 0.00 | 0.00 | 0.00 | 30 | 1021.1 |
| 20260905192557 | 18 | 109 | 14.5 | 29.0 | 0.00 | 0.00 | 0.00 | 32 | 1021.1 |
| 20260905192121 | 18 | 117 | 14.5 | 32.2 | 0.00 | 0.00 | 0.00 | 32 | 1021.1 |
| 20260905191609 | 18 | 153 | 11.3 | 32.2 | 0.00 | 0.00 | 0.00 | 32 | 1021.3 |
| 20260905191058 | 18 | 94 | 11.3 | 32.2 | 0.00 | 0.00 | 0.00 | 32 | 1021.1 |
| 20260905190558 | 18 | 120 | 14.5 | 29.0 | 0.00 | 0.00 | 0.00 | 32 | 1021.1 |
| 20260905190112 | 18 | 50 | 9.7 | 22.5 | 0.00 | 0.00 | 0.00 | 31 | 1021.2 |
| 20260905185557 | 18 | 61 | 11.3 | 29.0 | 0.00 | 0.00 | 0.00 | 32 | 1021.3 |
| 20260905185057 | 17 | 77 | 12.9 | 29.0 | 0.00 | 0.00 | 0.00 | 31 | 1021.1 |
| 20260905184625 | 17 | 129 | 12.9 | 27.4 | 0.00 | 0.00 | 0.00 | 32 | 1021.3 |
| 20260905184057 | 17 | 68 | 9.7 | 25.7 | 0.00 | 0.00 | 0.00 | 33 | 1021.3 |
| 20260905183557 | 17 | 154 | 11.3 | 25.7 | 0.00 | 0.00 | 0.00 | 33 | 1021.5 |
| 20260905183108 | 17 | 84 | 9.7 | 27.4 | 0.00 | 0.00 | 0.00 | 35 | 1021.6 |
| 20260905182557 | 17 | 18 | 11.3 | 27.4 | 0.00 | 0.00 | 0.00 | 33 | 1021.5 |
| 20260905182058 | 17 | 94 | 12.9 | 30.6 | 0.00 | 0.00 | 0.00 | 33 | 1021.6 |
| 20260905181607 | 17 | 50 | 11.3 | 30.6 | 0.00 | 0.00 | 0.00 | 32 | 1021.5 |
| 20260905181058 | 17 | 302 | 11.3 | 24.1 | 0.00 | 0.00 | 0.00 | 32 | 1021.5 |
| 20260905180557 | 17 | 75 | 8.0 | 22.5 | 0.00 | 0.00 | 0.00 | 32 | 1021.5 |
| 20260905180105 | 17 | 80 | 8.0 | 22.5 | 0.00 | 0.00 | 0.00 | 33 | 1021.6 |
| 20260905175557 | 17 | 69 | 6.4 | 22.5 | 0.00 | 0.00 | 0.00 | 34 | 1021.5 |
| 20260905175057 | 17 | 70 | 4.8 | 22.5 | 0.00 | 0.00 | 0.00 | 34 | 1021.4 |
| 20260905174610 | 17 | 35 | 8.0 | 22.5 | 0.00 | 0.00 | 0.00 | 32 | 1021.5 |
| 20260905174057 | 17 | 25 | 9.7 | 22.5 | 0.00 | 0.00 | 0.00 | 34 | 1021.5 |
| 20260905173558 | 17 | 63 | 1.6 | 11.3 | 0.00 | 0.00 | 0.00 | 35 | 1021.6 |
| 20260905173116 | 18 | 49 | 0.0 | 8.0 | 0.00 | 0.00 | 0.00 | 39 | 1021.6 |
| 20260905172556 | 17 | 258 | 3.2 | 8.0 | 0.00 | 0.00 | 0.00 | 39 | 1021.6 |
| 20260905172100 | 17 | 126 | 1.6 | 6.4 | 0.00 | 0.00 | 0.00 | 38 | 1021.7 |
| 20260905171625 | 17 | 84 | 1.6 | 6.4 | 0.00 | 0.00 | 0.00 | 39 | 1021.7 |
| 20260905171057 | 16 | 11 | 1.6 | 6.4 | 0.00 | 0.00 | 0.00 | 41 | 1021.6 |
| 20260905170557 | 16 | 27 | 1.6 | 8.0 | 0.00 | 0.00 | 0.00 | 41 | 1021.7 |
| 20260905170109 | 15 | 19 | 3.2 | 9.7 | 0.00 | 0.00 | 0.00 | 42 | 1021.6 |
| 20260905165558 | 15 | 47 | 4.8 | 9.7 | 0.00 | 0.00 | 0.00 | 41 | 1021.7 |
| 20260905165058 | 16 | 321 | 3.2 | 6.4 | 0.00 | 0.00 | 0.00 | 44 | 1021.7 |
| 20260905164606 | 16 | 47 | 0.0 | 4.8 | 0.00 | 0.00 | 0.00 | 43 | 1021.9 |
| 20260905164058 | 16 | 307 | 0.0 | 4.8 | 0.00 | 0.00 | 0.00 | 43 | 1021.7 |
| 20260905163557 | 15 | 0 | 0.0 | 8.0 | 0.00 | 0.00 | 0.00 | 43 | 1021.7 |
| 20260905163114 | 15 | 0 | 0.0 | 8.0 | 0.00 | 0.00 | 0.00 | 49 | 1021.8 |
| 20260905162600 | 15 | 74 | 1.6 | 8.0 | 0.00 | 0.00 | 0.00 | 49 | 1021.8 |
| 20260905162058 | 14 | 0 | 0.0 | 4.8 | 0.00 | 0.00 | 0.00 | 54 | 1021.9 |
| 20260905161604 | 14 | 302 | 0.0 | 4.8 | 0.00 | 0.00 | 0.00 | 55 | 1022.0 |
| 20260905161057 | 13 | 318 | 0.0 | 3.2 | 0.00 | 0.00 | 0.00 | 56 | 1022.0 |
| 20260905160557 | 13 | 0 | 0.0 | 8.0 | 0.00 | 0.00 | 0.00 | 58 | 1021.8 |
| 20260905160105 | 12 | 0 | 3.2 | 8.0 | 0.00 | 0.00 | 0.00 | 63 | 1021.9 |
| 20260905155557 | 12 | 48 | 1.6 | 6.4 | 0.00 | 0.00 | 0.00 | 64 | 1021.8 |
| 20260905155056 | 12 | 0 | 0.0 | 4.8 | 0.00 | 0.00 | 0.00 | 66 | 1022.0 |
| 20260905154618 | 12 | 84 | 0.0 | 4.8 | 0.00 | 0.00 | 0.00 | 67 | 1021.8 |
| 20260905154057 | 12 | 0 | 0.0 | 3.2 | 0.00 | 0.00 | 0.00 | 69 | 1022.0 |
| 20260905153556 | 10 | 0 | 0.0 | 3.2 | 0.00 | 0.00 | 0.00 | 74 | 1021.7 |
| 20260905153114 | 10 | 91 | 1.6 | 3.2 | 0.00 | 0.00 | 0.00 | 74 | 1021.9 |
| 20260905152557 | 9 | 0 | 0.0 | 1.6 | 0.00 | 0.00 | 0.00 | 78 | 1022.0 |
| 20260905152101 | 8 | 99 | 1.6 | 1.6 | 0.00 | 0.00 | 0.00 | 79 | 1022.1 |
| 20260905151613 | 8 | 0 | 0.0 | 1.6 | 0.00 | 0.00 | 0.00 | 79 | 1022.0 |
| 20260905151057 | 8 | 70 | 0.0 | 1.6 | 0.00 | 0.00 | 0.00 | 79 | 1022.0 |
| 20260905150556 | 8 | 0 | 0.0 | 1.6 | 0.00 | 0.00 | 0.00 | 81 | 1021.9 |
| 20260905150105 | 8 | 0 | 0.0 | 1.6 | 0.00 | 0.00 | 0.00 | 83 | 1022.0 |
| 20260905145601 | 7 | 0 | 0.0 | 1.6 | 0.00 | 0.00 | 0.00 | 81 | 1022.0 |
| 20260905145057 | 7 | 0 | 0.0 | 0.0 | 0.00 | 0.00 | 0.00 | 83 | 1022.0 |
| 20260905144603 | 6 | 0 | 0.0 | 0.0 | 0.00 | 0.00 | 0.00 | 87 | 1022.0 |
| 20260905144057 | 5 | 0 | 0.0 | 0.0 | 0.00 | 0.00 | 0.00 | 88 | 1022.0 |
| 20260905143557 | 4 | 0 | 0.0 | 0.0 | 0.00 | 0.00 | 0.00 | 91 | 1021.9 |
| 20260905143105 | 3 | 0 | 0.0 | 1.6 | 0.00 | 0.00 | 0.00 | 89 | 1021.8 |
| 20260905142557 | 3 | 0 | 0.0 | 1.6 | 0.00 | 0.00 | 0.00 | 88 | 1021.9 |
| 20260905142100 | 3 | 0 | 0.0 | 1.6 | 0.00 | 0.00 | 0.00 | 87 | 1021.8 |
| 20260905141603 | 3 | 0 | 0.0 | 1.6 | 0.00 | 0.00 | 0.00 | 88 | 1021.9 |
| 20260905141056 | 3 | 0 | 0.0 | 0.0 | 0.00 | 0.00 | 0.00 | 89 | 1021.8 |
| 20260905140556 | 3 | 0 | 0.0 | 1.6 | 0.00 | 0.00 | 0.00 | 88 | 1021.6 |
| 20260905140105 | 2 | 0 | 0.0 | 1.6 | 0.00 | 0.00 | 0.00 | 86 | 1021.6 |
| 20260905135557 | 2 | 170 | 0.0 | 1.6 | 0.00 | 0.00 | 0.00 | 88 | 1021.7 |
| 20260905135056 | 2 | 0 | 0.0 | 1.6 | 0.00 | 0.00 | 0.00 | 88 | 1021.5 |
| 20260905134602 | 2 | 190 | 0.0 | 4.8 | 0.00 | 0.00 | 0.00 | 87 | 1021.5 |
| 20260905134101 | 2 | 0 | 0.0 | 4.8 | 0.00 | 0.00 | 0.00 | 88 | 1021.5 |
| 20260905133557 | 2 | 217 | 0.0 | 4.8 | 0.00 | 0.00 | 0.00 | 87 | 1021.5 |
| 20260905133105 | 2 | 0 | 0.0 | 0.0 | 0.00 | 0.00 | 0.00 | 87 | 1021.4 |
| 20260905132558 | 2 | 0 | 0.0 | 0.0 | 0.00 | 0.00 | 0.00 | 84 | 1021.4 |
| 20260905132057 | 3 | 0 | 0.0 | 0.0 | 0.00 | 0.00 | 0.00 | 86 | 1021.3 |
| 20260905131610 | 3 | 0 | 0.0 | 3.2 | 0.00 | 0.00 | 0.00 | 87 | 1021.3 |
| 20260905131119 | 3 | 0 | 0.0 | 3.2 | 0.00 | 0.00 | 0.00 | 86 | 1021.1 |
| 20260905130559 | 3 | 0 | 0.0 | 3.2 | 0.00 | 0.00 | 0.00 | 86 | 1021.4 |
| 20260905125558 | 3 | 0 | 0.0 | 1.6 | 0.00 | 0.00 | 0.00 | 84 | 1021.5 |
| 20260905125058 | 3 | 0 | 0.0 | 0.0 | 0.00 | 0.00 | 0.00 | 85 | 1021.4 |
| 20260905124605 | 3 | 0 | 0.0 | 3.2 | 0.00 | 0.00 | 0.00 | 85 | 1021.3 |
| 20260905124058 | 3 | 0 | 1.6 | 3.2 | 0.00 | 0.00 | 0.00 | 83 | 1021.0 |
| 20260905123558 | 3 | 0 | 0.0 | 0.0 | 0.00 | 0.00 | 0.00 | 85 | 1021.1 |
| 20260905123110 | 3 | 0 | 0.0 | 1.6 | 0.00 | 0.00 | 0.00 | 86 | 1020.9 |
| 20260905122558 | 3 | 0 | 0.0 | 1.6 | 0.00 | 0.00 | 0.00 | 83 | 1021.0 |
| 20260905122100 | 3 | 0 | 0.0 | 1.6 | 0.00 | 0.00 | 0.00 | 80 | 1021.0 |
| 20260905121605 | 3 | 243 | 0.0 | 1.6 | 0.00 | 0.00 | 0.00 | 82 | 1020.9 |
| 20260905121058 | 4 | 171 | 0.0 | 1.6 | 0.00 | 0.00 | 0.00 | 81 | 1020.9 |
| 20260905120602 | 4 | 0 | 0.0 | 1.6 | 0.00 | 0.00 | 0.00 | 80 | 1020.9 |
| 20260905120107 | 4 | 0 | 0.0 | 3.2 | 0.00 | 0.00 | 0.00 | 81 | 1021.0 |
| 20260905115558 | 4 | 216 | 0.0 | 3.2 | 0.00 | 0.00 | 0.00 | 81 | 1020.8 |
| 20260905115058 | 5 | 170 | 0.0 | 3.2 | 0.00 | 0.00 | 0.00 | 78 | 1021.0 |
| 20260905114602 | 5 | 0 | 0.0 | 4.8 | 0.00 | 0.00 | 0.00 | 79 | 1020.9 |
| 20260905114102 | 5 | 0 | 0.0 | 4.8 | 0.00 | 0.00 | 0.00 | 82 | 1021.0 |
| 20260905113558 | 5 | 170 | 0.0 | 4.8 | 0.00 | 0.00 | 0.00 | 80 | 1021.0 |
| 20260905113107 | 5 | 0 | 0.0 | 3.2 | 0.00 | 0.00 | 0.00 | 81 | 1020.9 |
| 20260905112558 | 5 | 169 | 0.0 | 4.8 | 0.00 | 0.00 | 0.00 | 82 | 1020.9 |
| 20260905112058 | 4 | 0 | 0.0 | 4.8 | 0.00 | 0.00 | 0.00 | 83 | 1020.9 |
| 20260905111646 | 4 | 158 | 0.0 | 4.8 | 0.00 | 0.00 | 0.00 | 82 | 1021.0 |
| 20260905111057 | 4 | 0 | 1.6 | 4.8 | 0.00 | 0.00 | 0.00 | 81 | 1020.9 |
| 20260905110558 | 4 | 0 | 0.0 | 3.2 | 0.00 | 0.00 | 0.00 | 80 | 1021.0 |
| 20260905105557 | 5 | 0 | 0.0 | 3.2 | 0.00 | 0.00 | 0.00 | 82 | 1021.0 |
| 20260905105059 | 5 | 0 | 0.0 | 4.8 | 0.00 | 0.00 | 0.00 | 82 | 1020.9 |
| 20260905104608 | 5 | 0 | 0.0 | 4.8 | 0.00 | 0.00 | 0.00 | 83 | 1021.1 |
| 20260905104058 | 5 | 0 | 1.6 | 4.8 | 0.00 | 0.00 | 0.00 | 81 | 1020.9 |
| 20260905103559 | 5 | 240 | 0.0 | 4.8 | 0.00 | 0.00 | 0.00 | 82 | 1021.0 |
| 20260905103104 | 5 | 188 | 0.0 | 3.2 | 0.00 | 0.00 | 0.00 | 82 | 1021.0 |
| 20260905102558 | 5 | 155 | 0.0 | 4.8 | 0.00 | 0.00 | 0.00 | 83 | 1021.0 |
| 20260905102058 | 5 | 0 | 0.0 | 4.8 | 0.00 | 0.00 | 0.00 | 80 | 1021.1 |
| 20260905101607 | 5 | 0 | 0.0 | 3.2 | 0.00 | 0.00 | 0.00 | 82 | 1021.1 |
| 20260905101058 | 5 | 0 | 0.0 | 3.2 | 0.00 | 0.00 | 0.00 | 82 | 1021.1 |
| 20260905100558 | 5 | 169 | 0.0 | 3.2 | 0.00 | 0.00 | 0.00 | 82 | 1021.2 |
| 20260905100114 | 5 | 0 | 1.6 | 3.2 | 0.00 | 0.00 | 0.00 | 81 | 1021.2 |
| 20260905095557 | 5 | 210 | 0.0 | 4.8 | 0.00 | 0.00 | 0.00 | 83 | 1021.3 |
| 20260905095058 | 5 | 0 | 1.6 | 4.8 | 0.00 | 0.00 | 0.00 | 80 | 1021.1 |
| 20260905094607 | 5 | 0 | 0.0 | 3.2 | 0.00 | 0.00 | 0.00 | 81 | 1021.3 |